[[{"header":{"parameterUnit":"m.s-1","parameterCategory":1,"la1":30.2991,"la2":30.254,"lo1":-89.0895,"lo2":-89.0444,"dy":0.0017,"dx":0.0017,"nx":28,"ny":28,"refTime":"2024-02-25T03:00:00:Z","depth":0,"parameterNumber":2,"parameterNumberName":"U-component_of_WINDS"},"data":[0,0,0,0,0,0,0,0,0,0,0,0,0,0,0,0,0,0,0,0,0,0,0,0,0,0,0,0,0,0,0,0,0,0,0,0,0,0,0,0,0,0,0,0,0,0,0,0,0,0,0,0,0,0,0,0,0,0,-1.6034,-1.6035,0,-1.6135,-1.6136,-1.6137,-1.6156,-1.6155,-1.6154,-1.6154,-1.6261,-1.6264,-1.6268,0,0,0,0,0,0,0,0,0,0,0,0,0,-1.5861,-1.5864,-1.6034,-1.6035,-1.6036,-1.6134,-1.6136,-1.6137,-1.6156,-1.6155,-1.6154,-1.6153,-1.626,-1.6264,-1.6268,0,0,0,0,0,0,0,0,0,0,0,0,0,-1.5946,-1.5865,-1.6034,-1.6057,-1.6061,-1.6134,-1.6136,-1.6138,-1.6156,-1.6155,-1.6154,-1.6153,-1.6258,-1.6263,-1.6269,-1.6327,0,0,-1.6285,-1.6288,0,0,0,0,0,0,0,0,-1.5941,-1.5953,-1.6053,-1.6056,-1.606,-1.6131,-1.6114,-1.6201,-1.6157,-1.612,-1.6154,-1.6152,-1.6219,-1.6228,-1.6249,-1.6332,-1.6336,-1.6286,-1.6289,-1.6291,-1.6293,0,0,0,0,0,0,0,-1.5935,-1.5948,-1.6074,-1.6054,-1.6058,-1.6064,-1.6075,-1.6131,-1.6175,-1.6123,-1.6125,-1.6136,-1.6221,-1.6244,-1.6252,-1.6338,-1.6286,-1.629,-1.6294,-1.6296,-1.6472,-1.6474,0,0,0,0,0,0,-1.5925,-1.5943,-1.6071,-1.6077,-1.5996,-1.6068,-1.608,-1.611,-1.6175,-1.6183,-1.6137,-1.6137,-1.6235,-1.6246,-1.6256,-1.6327,-1.6291,-1.6296,-1.63,-1.6471,-1.6472,-1.6474,0,0,0,0,0,0,-1.5921,-1.5936,-1.6067,-1.6011,-1.6028,-1.6073,-1.6105,-1.6112,-1.6136,-1.6185,-1.6194,-1.6153,-1.6235,-1.6248,-1.6308,-1.6331,-1.6299,-1.6304,-1.6469,-1.6471,-1.6473,-1.6471,0,0,0,0,0,0,-1.5916,-1.5934,-1.5956,-1.6011,-1.603,-1.6117,-1.6107,-1.6115,-1.6144,-1.6145,-1.6202,-1.621,-1.6235,-1.63,-1.6314,-1.6338,-1.6308,-1.6467,-1.647,-1.6473,-1.6469,-1.6472,-1.6475,0,0,0,0,0,-1.591,-1.5953,-1.5957,-1.5973,-1.6058,-1.6118,-1.6129,-1.6155,-1.6146,-1.6169,-1.6201,-1.6209,-1.6326,-1.6306,-1.6322,-1.6348,-1.6466,-1.6469,-1.6472,-1.6467,-1.6472,-1.6475,0,0,0,0,0,0,-1.5902,-1.596,-1.5966,-1.6028,-1.6067,-1.6121,-1.615,-1.6159,-1.6204,-1.6202,-1.6234,-1.6247,-1.6305,-1.6333,-1.6309,-1.6407,-1.6396,-1.6402,-1.6387,-1.6391,-1.6394,-1.6386,-1.6313,0,0,0,0,0,-1.5907,-1.5949,-1.5998,-1.6048,-1.6067,-1.6105,-1.6132,-1.6149,-1.6192,-1.6209,-1.6245,-1.6288,-1.6334,-1.6364,-1.641,-1.6473,-1.6485,-1.6499,-1.6502,-1.6504,-1.6509,-1.6544,-1.655,-1.6485,-1.6485,-1.6485,0,0,-1.5918,-1.5956,-1.5981,-1.6047,-1.608,-1.6123,-1.612,-1.6166,-1.6199,-1.6217,-1.6275,-1.6303,-1.6353,-1.6414,-1.6443,-1.6439,-1.653,-1.6508,-1.651,-1.6514,-1.6548,-1.6554,-1.6559,-1.6487,-1.6486,-1.6486,0,0,-1.5961,-1.5994,-1.6038,-1.607,-1.6119,-1.6144,-1.6154,-1.6206,-1.6225,-1.6284,-1.6298,-1.6338,-1.6418,-1.6452,-1.648,-1.6534,-1.6543,-1.6548,-1.6565,-1.6598,-1.6603,-1.6608,-1.6627,-1.6633,-1.6553,-1.6553,-1.6553,0,-1.597,-1.6035,-1.606,-1.6105,-1.6134,-1.6151,-1.6196,-1.6227,-1.6288,-1.6308,-1.6302,-1.6402,-1.6436,-1.6505,-1.6518,-1.6541,-1.6554,-1.6542,-1.66,-1.6605,-1.661,-1.6628,-1.6635,-1.6553,-1.6553,-1.6553,-1.6553,0,-1.6043,-1.6087,-1.6117,-1.6174,-1.6207,-1.6252,-1.6285,-1.6315,-1.6328,-1.6354,-1.6413,-1.6455,-1.6509,-1.6527,-1.6541,-1.6598,-1.6594,-1.6594,-1.6583,-1.6616,-1.6634,-1.6641,-1.6554,-1.6554,-1.6554,-1.6554,0,0,-1.6084,-1.6153,-1.6164,-1.6189,-1.6243,-1.6279,-1.6325,-1.6376,-1.6401,-1.6443,-1.6482,-1.6549,-1.6548,-1.658,-1.6599,-1.6628,-1.6667,-1.6624,-1.6626,-1.663,-1.6731,-1.673,-1.6737,-1.6673,-1.6674,-1.6676,-1.6726,0,-1.6133,-1.6214,-1.6237,-1.6306,-1.6347,-1.6362,-1.6402,-1.644,-1.6465,-1.6505,-1.6533,-1.6579,-1.6576,-1.6595,-1.6624,-1.6656,-1.6687,-1.6653,-1.671,-1.6712,-1.6696,-1.6747,-1.6746,-1.6792,-1.6734,-1.6735,-1.6736,0,-1.6201,-1.6242,-1.6314,-1.6361,-1.6379,-1.6415,-1.6463,-1.65,-1.6544,-1.656,-1.6594,-1.661,-1.6659,-1.6645,-1.6713,-1.6689,-1.6714,-1.6733,-1.6735,-1.6741,-1.6725,-1.6754,-1.6808,-1.6814,-1.6747,-1.6746,-1.6745,0,-1.6223,-1.6296,-1.6348,-1.637,-1.6427,-1.6451,-1.6476,-1.6518,-1.6547,-1.6589,-1.6608,-1.6657,-1.6683,-1.672,-1.6748,-1.6736,-1.6814,-1.6803,-1.6829,-1.6828,-1.6844,-1.6843,-1.6902,-1.6861,-1.6861,-1.6861,-1.6861,0,-1.6275,-1.6318,-1.6358,-1.639,-1.6439,-1.6466,-1.6514,-1.654,-1.6577,-1.6615,-1.6632,-1.6668,-1.6703,-1.6743,-1.6766,-1.6818,-1.6831,-1.6845,-1.685,-1.6843,-1.6841,-1.686,-1.6857,-1.6863,-1.6862,-1.6862,-1.6862,0,-1.6308,-1.6337,-1.6394,-1.6442,-1.6456,-1.6489,-1.6531,-1.6563,-1.6588,-1.6636,-1.6649,-1.6688,-1.6736,-1.6768,-1.683,-1.6846,-1.6902,-1.6908,-1.6887,-1.6889,-1.6913,-1.691,-1.6986,-1.6997,-1.6949,-1.695,-1.695,0,-1.6339,-1.6372,-1.6423,-1.6449,-1.6473,-1.6515,-1.6543,-1.6571,-1.66,-1.6651,-1.6677,-1.6726,-1.6766,-1.6843,-1.6878,-1.6925,-1.6931,-1.6955,-1.6939,-1.693,-1.6931,-1.6928,-1.6931,-1.6957,-1.6957,-1.6958,-1.6958,0,-1.6391,-1.6403,-1.6442,-1.6487,-1.6519,-1.6556,-1.6593,-1.6614,-1.6648,-1.668,-1.6728,-1.676,-1.6822,-1.687,-1.692,-1.6948,-1.6959,-1.6963,-1.6971,-1.6964,-1.695,-1.6957,-1.6893,-1.6961,-1.6961,-1.696,-1.696,-1.696,-1.6424,-1.6453,-1.6493,-1.6536,-1.6566,-1.66,-1.6631,-1.6659,-1.6699,-1.6751,-1.6765,-1.6815,-1.6858,-1.6926,-1.6954,-1.6994,-1.6992,-1.7004,-1.7007,-1.7009,-1.7009,-1.6943,-1.7004,-1.7004,-1.7003,-1.7003,-1.7003,0,-1.6475,-1.6501,-1.654,-1.659,-1.6624,-1.6629,-1.667,-1.6699,-1.6742,-1.678,-1.6818,-1.6873,-1.692,-1.6958,-1.7006,-1.7031,-1.7037,-1.7042,-1.7041,-1.7046,-1.7009,-1.6996,-1.7036,-1.7036,-1.7036,-1.7036,-1.7036,-1.7036,-1.6506,-1.6556,-1.6572,-1.6637,-1.6663,-1.671,-1.6733,-1.6764,-1.6794,-1.6854,-1.6892,-1.6916,-1.6953,-1.7004,-1.7047,-1.7057,-1.7074,-1.7078,-1.7089,-1.7053,-1.7049,-1.7046,-1.7034,-1.7082,-1.7082,-1.7123,-1.7124,-1.7124]},{"header":{"parameterUnit":"m.s-1","parameterCategory":1,"la1":30.2991,"la2":30.254,"lo1":-89.0895,"lo2":-89.0444,"dy":0.0017,"dx":0.0017,"nx":28,"ny":28,"refTime":"2024-02-25T03:00:00:Z","depth":0,"parameterNumber":3,"parameterNumberName":"V-component_of_WINDS"},"data":[0,0,0,0,0,0,0,0,0,0,0,0,0,0,0,0,0,0,0,0,0,0,0,0,0,0,0,0,0,0,0,0,0,0,0,0,0,0,0,0,0,0,0,0,0,0,0,0,0,0,0,0,0,0,0,0,0,0,1.545,1.5452,0,1.5615,1.5617,1.5619,1.5653,1.5652,1.565,1.5649,1.5818,1.5823,1.5829,0,0,0,0,0,0,0,0,0,0,0,0,0,1.5165,1.517,1.545,1.5452,1.5454,1.5615,1.5617,1.5619,1.5653,1.5652,1.565,1.5649,1.5816,1.5823,1.5829,0,0,0,0,0,0,0,0,0,0,0,0,0,1.5305,1.5172,1.545,1.549,1.5496,1.5614,1.5617,1.562,1.5653,1.5651,1.565,1.5648,1.5814,1.5822,1.583,1.592,0,0,1.5856,1.586,0,0,0,0,0,0,0,0,1.5297,1.5316,1.5482,1.5488,1.5494,1.5611,1.5578,1.572,1.5654,1.5594,1.5649,1.5647,1.5751,1.5764,1.5799,1.5928,1.5935,1.5857,1.5862,1.5866,1.5868,0,0,0,0,0,0,0,1.5288,1.5309,1.5515,1.5485,1.5492,1.5501,1.5518,1.5605,1.5681,1.5599,1.5602,1.5621,1.5753,1.5791,1.5803,1.5937,1.5857,1.5864,1.5869,1.5873,1.6149,1.6151,0,0,0,0,0,0,1.5271,1.5301,1.551,1.552,1.5389,1.5507,1.5527,1.5576,1.568,1.5694,1.5622,1.5621,1.5777,1.5793,1.5809,1.5923,1.5866,1.5874,1.5878,1.6147,1.6149,1.6152,0,0,0,0,0,0,1.5265,1.5289,1.5503,1.5411,1.5439,1.5514,1.5568,1.558,1.5618,1.5697,1.5711,1.5647,1.5777,1.5798,1.5892,1.5929,1.5877,1.5885,1.6144,1.6147,1.615,1.6149,0,0,0,0,0,0,1.5256,1.5287,1.5322,1.5412,1.5444,1.5584,1.557,1.5584,1.5632,1.5633,1.5724,1.5737,1.5777,1.588,1.5901,1.594,1.5892,1.6141,1.6145,1.6149,1.6146,1.6152,1.6157,0,0,0,0,0,1.5246,1.5314,1.5323,1.5348,1.5489,1.5586,1.5604,1.5649,1.5635,1.5671,1.5722,1.5734,1.5921,1.5889,1.5913,1.5955,1.6139,1.6144,1.6149,1.6144,1.6151,1.6156,0,0,0,0,0,0,1.5227,1.5327,1.5338,1.5438,1.5503,1.5591,1.5638,1.5654,1.5725,1.5723,1.5774,1.5795,1.5887,1.593,1.5893,1.6048,1.6029,1.6039,1.6017,1.6024,1.6029,1.6018,1.5899,0,0,0,0,0,1.5234,1.5304,1.5388,1.5468,1.55,1.5563,1.5607,1.5635,1.5705,1.5733,1.5791,1.5858,1.5932,1.598,1.6052,1.6151,1.6172,1.6192,1.6197,1.6201,1.621,1.6267,1.6277,1.6168,1.6168,1.6168,0,0,1.5251,1.5314,1.5355,1.5465,1.5519,1.5591,1.5586,1.5662,1.5716,1.5744,1.5839,1.5883,1.5961,1.6059,1.6105,1.6098,1.6244,1.6208,1.621,1.6217,1.6273,1.6283,1.6293,1.6172,1.6171,1.6171,0,0,1.5318,1.5371,1.5445,1.5498,1.558,1.5622,1.5639,1.5725,1.5756,1.5851,1.5873,1.5938,1.6064,1.6119,1.6164,1.625,1.6265,1.6272,1.6301,1.6355,1.6364,1.6372,1.6405,1.6416,1.628,1.628,1.628,0,1.5328,1.5437,1.548,1.5556,1.5604,1.5632,1.5707,1.5757,1.5858,1.5891,1.5881,1.604,1.6094,1.6206,1.6227,1.6262,1.6284,1.6263,1.6359,1.6368,1.6376,1.6408,1.6419,1.628,1.628,1.628,1.628,0,1.5446,1.5521,1.557,1.5667,1.5721,1.5795,1.585,1.5899,1.5922,1.5964,1.6061,1.6127,1.6214,1.6241,1.6264,1.6357,1.635,1.6349,1.6332,1.6386,1.6417,1.6429,1.6281,1.6281,1.6281,1.6281,0,0,1.5509,1.5627,1.5645,1.569,1.5781,1.584,1.5915,1.6,1.6042,1.6109,1.6175,1.628,1.628,1.6331,1.636,1.6407,1.6474,1.6401,1.6403,1.6414,1.6581,1.6584,1.6597,1.6483,1.6485,1.6487,1.6576,0,1.5589,1.5725,1.5766,1.588,1.5951,1.5977,1.6043,1.6106,1.6147,1.6213,1.6258,1.6333,1.6326,1.6357,1.6405,1.6455,1.6508,1.6449,1.6546,1.6549,1.6528,1.6613,1.6616,1.6696,1.6588,1.659,1.6591,0,1.5701,1.5771,1.5892,1.5975,1.6006,1.6064,1.6145,1.6207,1.6279,1.6306,1.6362,1.6387,1.6467,1.6443,1.6555,1.6513,1.6555,1.6585,1.6589,1.6603,1.6575,1.6631,1.6723,1.6736,1.661,1.6609,1.6607,0,1.5738,1.5862,1.5951,1.5987,1.6085,1.6126,1.6168,1.6238,1.6287,1.6357,1.6389,1.6467,1.6511,1.6571,1.6617,1.6595,1.6725,1.6704,1.6751,1.675,1.678,1.6778,1.6882,1.6801,1.6801,1.6801,1.68,0,1.5824,1.5898,1.5968,1.6024,1.6107,1.6152,1.6234,1.6278,1.6339,1.6404,1.643,1.649,1.6545,1.6612,1.6648,1.6736,1.6755,1.6779,1.6789,1.6779,1.6776,1.6809,1.6806,1.6804,1.6803,1.6803,1.6802,0,1.5881,1.593,1.603,1.6113,1.6136,1.6194,1.6266,1.632,1.6361,1.6442,1.6464,1.6529,1.661,1.666,1.6762,1.6786,1.6883,1.6889,1.686,1.6864,1.6909,1.6905,1.7041,1.7062,1.6964,1.6964,1.6965,0,1.5935,1.5992,1.6081,1.6126,1.6169,1.624,1.629,1.6336,1.6386,1.6472,1.6516,1.6598,1.6667,1.6794,1.6851,1.6929,1.6938,1.698,1.6951,1.6939,1.6942,1.694,1.6946,1.6986,1.6987,1.6988,1.6988,0,1.6026,1.6047,1.6117,1.6195,1.6253,1.6316,1.638,1.6415,1.6472,1.6527,1.661,1.6663,1.6767,1.6849,1.6932,1.6976,1.6993,1.6997,1.7012,1.7005,1.6986,1.6999,1.6876,1.6994,1.6994,1.6993,1.6993,1.6993,1.6085,1.6137,1.6208,1.6285,1.6337,1.6396,1.6452,1.6499,1.6569,1.6657,1.6679,1.6766,1.6836,1.695,1.6995,1.7064,1.7058,1.708,1.7086,1.7091,1.7093,1.6972,1.7079,1.7079,1.7079,1.7078,1.7078,0,1.6179,1.6226,1.6295,1.6384,1.6444,1.6452,1.6523,1.6573,1.6649,1.6713,1.6779,1.6874,1.6953,1.7015,1.7096,1.7139,1.7149,1.7159,1.7158,1.7168,1.7093,1.7072,1.715,1.715,1.715,1.715,1.715,1.715,1.6236,1.6326,1.6355,1.6471,1.6517,1.6602,1.6642,1.6696,1.6748,1.6852,1.6918,1.6957,1.7021,1.7106,1.7179,1.7195,1.7225,1.7235,1.7253,1.7181,1.7174,1.7166,1.7148,1.724,1.724,1.7323,1.7324,1.7325]}]]